Regional Weather Roundup
Issued by NWS

Home | Current Version | Previous Version | Text Only | Print | Product List | Glossary Off
Versions: 1 2 3 4 5 6 7 8 9 10 11 12 13 14 15 16 17 18 19 20 21 22 23 24 25 26 27 28 29 30 31 32 33 34 35 36 37 38 39 40 41 42 43 44 45 46 47 48

000
ASUS45 KBOU 010607
RWRCO

WEATHER ROUNDUP FOR COLORADO
NATIONAL WEATHER SERVICE DENVER/BOULDER CO
1100 PM MST SAT JAN 31 2015

NOTE: "FAIR" INDICATES FEW OR NO CLOUDS BELOW 12000 FEET WITH NO
SIGNIFICANT WEATHER AND/OR OBSTRUCTIONS TO VISIBILITY.

COZ001>005-013-030-031-010700-
...NORTHWEST COLORADO...

CITY           SKY/WX    TMP DP  RH WIND       PRES   REMARKS
CRAIG          CLEAR     29  16  58 W14       30.01R WCI  18
HAYDEN         CLEAR     27  12  54 W15       29.98R WCI  15
MEEKER         CLEAR     26  23  88 CALM      30.04R
MOUNT WERNER   NOT AVBL
STEAMBOAT SPGS CLEAR     25  19  80 CALM      29.97R
WALDEN         CLOUDY    23  18  80 NW12G18   29.92R WCI  12
$$

COZ006>008-011-010700-
...WEST CENTRAL VALLEYS...

CITY           SKY/WX    TMP DP  RH WIND       PRES   REMARKS
GRAND JUNCTION CLEAR     34  32  92 N8        30.03R WCI  27
MONTROSE       PTCLDY    33  32  96 CALM      30.06R
EAGLE          CLEAR     30  28  93 SW6       30.01R WCI  24
RIFLE          CLEAR     30  26  85 NE3       30.02R
DELTA          MOCLDY    37  36  95 E3        30.05R
NUCLA          CLEAR     32  32 100 E5        30.08R FOG     WCI  27
$$

COZ017>023-064>068-010700-
...SOUTHWEST COLORADO...

CITY           SKY/WX    TMP DP  RH WIND       PRES   REMARKS
DURANGO        FOG       32  32 100 CALM      29.96S VSB 3/4
CORTEZ         CLEAR     32  30  92 VRB3      30.00R
PAGOSA SPRINGS CLOUDY    32  32 100 CALM      29.97R
TELLURIDE      MOCLDY    26  26  98 CALM      30.05R
WOLF CREEK PAS PTCLDY    18   3  53 N30G37    29.99F WCI  -2
$$

COZ009-010-012-014-032>034-037-058>063-010700-
...CENTRAL COLORADO...

CITY           SKY/WX    TMP DP  RH WIND       PRES   REMARKS
ASPEN          CLOUDY    25  22  88 SW3       29.98S
BUENA VISTA    PTCLDY    30  14  50 W9G20     29.89S WCI  22
COPPER MTN     LGT SNOW  14   9  79 W33G58    29.89F VSB 3/4 WCI  -8
BERTHOUD PASS  CLOUDY     7   1  78 NW38G47   29.83R HAZE    WCI -19
COTTONWOOD PAS PTCLDY    28  10  47 NW13G29   29.89S WCI  18
GUNNISON       PTCLDY    27  19  74 W5        30.00R WCI  21
KREMMLING      PTCLDY    30  12  47 W10       29.98R WCI  21
LEADVILLE      CLOUDY    20   9  62 NW14      29.92R WCI   7
MONARCH PASS   CLOUDY    16  12  86 MISG      30.02S
SALIDA         PTCLDY    32  25  75 NW10G18   29.97R WCI  23
SUNLIGHT       CLOUDY   N/A N/A N/A CALM        N/A  FOG
WILKERSON PASS MOCLDY    18   9  68 NW12G25   29.90S WCI   5
$$

COZ069>075-010700-
...SAN LUIS VALLEY/SANGRE DE CRISTO MOUNTAINS...

CITY           SKY/WX    TMP DP  RH WIND       PRES   REMARKS
ALAMOSA        CLOUDY    29  28  96 CALM      29.93R FOG
LA VETA PASS   FOG       23  21  93 MISG      29.89S VSB 1
SAGUACHE       CLOUDY    30  23  74 NW3       29.94R
$$

COZ035-036-038>040-010700-
...NORTHERN COLORADO FRONT RANGE...

CITY           SKY/WX    TMP DP  RH WIND       PRES   REMARKS
DENVER INTL AP LGT SNOW  30  29  96 N21G26    29.93R FOG     WCI  17
DMNS CITY PARK   N/A     29  29  99 N15       29.97R WCI  18
AURORA         LGT SNOW  30  30 100 N18G25    29.93R VSB 3/4 WCI  18
FRONT RANGE AP NOT AVBL
ERIE MUNI ARPT LGT SNOW  31  30  96 N9G17     29.96R VSB 3/4 WCI  22
BOULDER MUN AP SNOW      30  30 100 NE6       29.96R VSB 1/2 WCI  24
CENTENNIAL     SNOW      29  29 100 N20       29.91R VSB 1/2 WCI  16
BROOMFIELD     LGT SNOW  30  30 100 N14       29.96R VSB 3/4 WCI  20
FORT COLLINS   CLOUDY    32  25  74 N17       29.96R WCI  21
LONGMONT       SNOW      33  31  94 NE7       29.97R VSB 1/2 WCI  26
$$

COZ041-046-047-076>085-087-088-010700-
...PIKES PEAK/PALMER DIVIDE AND SOUTHERN FOOTHILLS...

CITY           SKY/WX    TMP DP  RH WIND       PRES   REMARKS
COLO. SPRINGS  PTCLDY    31  26  82 E3        29.87R
A. F. ACADEMY  CLEAR     29  26  89 N14       29.85R WCI  18
ELLICOTT       CLEAR    N/A N/A N/A N6        29.86R
FALCON         MOCLDY    30  26  88 N17       29.87R WCI  18
FORT CARSON    CLEAR     29  28  95 E3        29.86R
LIMON          LGT SNOW  29  27  92 N16       29.90R FOG     WCI  17
MONUMENT HILL  CLOUDY    28  27  93 N13       29.88R WCI  18
TRINIDAD       MIX PCPN  35  32  88 SW8       29.87S WCI  29
$$

COZ042>045-048>051-090-091-010700-
...NORTHEAST COLORADO...

CITY           SKY/WX    TMP DP  RH WIND       PRES   REMARKS
GREELEY ARPT   MOCLDY    34  21  60 N21G29    29.95R WCI  22
AKRON          FOG       25  25 100 N16       29.92S VSB 3/4 WCI  12
BURLINGTON     CLOUDY    31  29  92 N17       29.87R FOG     WCI  19
WRAY           CLOUDY    25  23  92 N16G24    29.94R WCI  13
STERLING       CLOUDY    27  25  93 NE10      29.96R WCI  17
HOLYOKE        NOT AVBL
FORT MORGAN    CLOUDY    29  27  91 N13       29.94S WCI  19
$$

COZ086-089-092>099-010700-
...SOUTHEAST COLORADO...

CITY           SKY/WX    TMP DP  RH WIND       PRES   REMARKS
PUEBLO         PTCLDY    31  31 100 N6        29.88R WCI  25
LA JUNTA       CLOUDY    37  34  89 W10       29.88R
LAMAR          CLOUDY    37  36  96 NW7       29.85R
SPRINGFIELD      N/A     36  35  96 NW13      29.84R
$$



USA.gov is the U.S. government's official web portal to all federal, state and local government web resources and services.